Total_Precipitation_Accumulation
0.00 0.01 0.03 0.05 0.05 0.06 0.13 0.22 0.23 0.19 0.23 0.31 0.31 0.28 0.26 0.12 0.08 0.08 0.10 0.12 0.18 0.27 0.24 0.17 0.14 0.13 0.10 0.08 0.10 0.14 0.19 0.27 0.31 0.33 0.38 0.40 0.39 0.38 0.42 0.41 0.26 0.36 0.24
0.00 0.01 0.04 0.07 0.07 0.06 0.10 0.16 0.22 0.21 0.24 0.30 0.31 0.32 0.21 0.11 0.08 0.09 0.10 0.11 0.14 0.17 0.16 0.16 0.17 0.15 0.12 0.13 0.16 0.18 0.20 0.26 0.33 0.31 0.34 0.29 0.31 0.36 0.33 0.26 0.18 0.23 0.21
0.01 0.01 0.05 0.11 0.09 0.06 0.07 0.15 0.24 0.27 0.32 0.36 0.39 0.39 0.17 0.07 0.07 0.09 0.11 0.14 0.15 0.10 0.09 0.13 0.18 0.17 0.14 0.16 0.19 0.21 0.23 0.23 0.26 0.26 0.33 0.35 0.26 0.35 0.39 0.39 0.30 0.23 0.22
0.01 0.05 0.13 0.16 0.13 0.09 0.11 0.20 0.27 0.34 0.40 0.46 0.47 0.33 0.10 0.05 0.08 0.11 0.15 0.19 0.13 0.05 0.04 0.08 0.12 0.12 0.10 0.13 0.15 0.15 0.21 0.21 0.23 0.22 0.29 0.44 0.40 0.51 0.53 0.48 0.40 0.23 0.22
0.02 0.10 0.22 0.22 0.18 0.15 0.16 0.25 0.35 0.42 0.40 0.45 0.43 0.23 0.09 0.07 0.09 0.15 0.21 0.17 0.08 0.03 0.02 0.03 0.07 0.06 0.06 0.08 0.11 0.14 0.19 0.23 0.33 0.29 0.29 0.39 0.46 0.49 0.48 0.58 0.53 0.31 0.25
0.02 0.07 0.14 0.20 0.20 0.19 0.23 0.32 0.34 0.31 0.32 0.40 0.35 0.22 0.12 0.13 0.14 0.17 0.14 0.07 0.03 0.02 0.02 0.01 0.03 0.05 0.05 0.07 0.09 0.12 0.17 0.22 0.26 0.24 0.28 0.34 0.42 0.42 0.44 0.56 0.57 0.42 0.29
0.01 0.02 0.07 0.16 0.15 0.16 0.23 0.31 0.32 0.25 0.30 0.36 0.35 0.28 0.15 0.16 0.18 0.18 0.10 0.03 0.02 0.02 0.02 0.02 0.02 0.02 0.04 0.06 0.07 0.10 0.14 0.13 0.13 0.19 0.28 0.37 0.35 0.32 0.36 0.53 0.66 0.61 0.40
0.01 0.01 0.03 0.11 0.12 0.13 0.19 0.25 0.28 0.26 0.31 0.32 0.26 0.22 0.20 0.15 0.16 0.13 0.07 0.03 0.01 0.02 0.05 0.02 0.01 0.02 0.03 0.06 0.08 0.09 0.11 0.07 0.05 0.10 0.20 0.30 0.37 0.41 0.34 0.40 0.52 0.58 0.45
0.01 0.01 0.02 0.04 0.07 0.11 0.18 0.21 0.25 0.27 0.31 0.29 0.16 0.16 0.21 0.11 0.09 0.07 0.03 0.01 0.01 0.02 0.04 0.02 0.01 0.02 0.05 0.08 0.10 0.08 0.07 0.05 0.03 0.05 0.10 0.19 0.32 0.35 0.28 0.30 0.35 0.41 0.41
0.02 0.03 0.02 0.02 0.04 0.08 0.13 0.18 0.17 0.18 0.23 0.20 0.12 0.14 0.18 0.10 0.07 0.04 0.01 0.00 0.01 0.02 0.04 0.02 0.02 0.04 0.06 0.08 0.07 0.05 0.04 0.02 0.02 0.03 0.07 0.12 0.19 0.17 0.13 0.17 0.20 0.22 0.25
0.04 0.07 0.05 0.02 0.02 0.06 0.13 0.17 0.20 0.21 0.23 0.20 0.14 0.17 0.13 0.08 0.06 0.04 0.02 0.01 0.02 0.05 0.06 0.03 0.03 0.04 0.03 0.05 0.03 0.02 0.01 0.00 0.01 0.03 0.07 0.10 0.11 0.08 0.07 0.08 0.10 0.10 0.12
0.04 0.08 0.08 0.06 0.03 0.02 0.08 0.16 0.23 0.21 0.16 0.15 0.14 0.14 0.12 0.08 0.09 0.04 0.06 0.07 0.03 0.05 0.06 0.04 0.04 0.02 0.00 0.00 0.01 0.00 0.00 0.01 0.02 0.04 0.07 0.12 0.10 0.07 0.05 0.06 0.05 0.05 0.06
0.03 0.05 0.05 0.03 0.02 0.02 0.07 0.15 0.19 0.21 0.20 0.23 0.15 0.13 0.08 0.05 0.03 0.02 0.05 0.08 0.05 0.06 0.04 0.04 0.03 0.02 0.02 0.00 0.00 0.01 0.01 0.01 0.02 0.06 0.10 0.19 0.18 0.13 0.08 0.05 0.05 0.05 0.05
0.02 0.02 0.03 0.04 0.04 0.03 0.02 0.06 0.09 0.11 0.13 0.15 0.14 0.10 0.05 0.04 0.03 0.04 0.05 0.10 0.08 0.03 0.03 0.05 0.04 0.04 0.04 0.01 0.01 0.02 0.02 0.01 0.05 0.11 0.13 0.29 0.35 0.26 0.18 0.12 0.09 0.08 0.07
0.02 0.03 0.04 0.05 0.06 0.07 0.03 0.03 0.03 0.04 0.07 0.14 0.18 0.11 0.04 0.02 0.05 0.07 0.08 0.14 0.10 0.04 0.05 0.08 0.03 0.03 0.04 0.01 0.03 0.04 0.02 0.02 0.06 0.10 0.14 0.30 0.52 0.58 0.44 0.30 0.20 0.15 0.13
0.08 0.14 0.15 0.13 0.14 0.10 0.06 0.05 0.06 0.04 0.05 0.10 0.12 0.09 0.04 0.02 0.03 0.07 0.06 0.08 0.05 0.06 0.08 0.04 0.04 0.05 0.05 0.01 0.01 0.01 0.01 0.01 0.04 0.09 0.17 0.28 0.47 0.72 0.78 0.60 0.45 0.34 0.25
0.08 0.17 0.25 0.24 0.23 0.16 0.11 0.09 0.09 0.06 0.05 0.08 0.13 0.10 0.06 0.04 0.04 0.09 0.06 0.04 0.06 0.08 0.07 0.07 0.10 0.07 0.07 0.02 0.01 0.01 0.01 0.03 0.04 0.04 0.09 0.21 0.28 0.38 0.58 0.68 0.68 0.59 0.39
0.07 0.17 0.24 0.23 0.28 0.24 0.18 0.12 0.14 0.10 0.09 0.13 0.14 0.16 0.14 0.08 0.05 0.11 0.10 0.07 0.13 0.15 0.11 0.10 0.07 0.06 0.07 0.04 0.03 0.01 0.00 0.01 0.03 0.02 0.03 0.04 0.05 0.07 0.12 0.19 0.25 0.35 0.40
0.06 0.13 0.14 0.18 0.37 0.36 0.28 0.31 0.30 0.25 0.27 0.28 0.28 0.31 0.28 0.19 0.16 0.18 0.18 0.13 0.13 0.20 0.18 0.13 0.09 0.11 0.06 0.05 0.03 0.03 0.01 0.00 0.01 0.01 0.01 0.01 0.00 0.01 0.02 0.03 0.05 0.08 0.13
0.07 0.12 0.15 0.21 0.30 0.43 0.56 0.57 0.57 0.54 0.51 0.53 0.55 0.55 0.42 0.37 0.32 0.30 0.30 0.26 0.22 0.25 0.28 0.20 0.21 0.18 0.15 0.12 0.08 0.05 0.02 0.01 0.00 0.00 0.00 0.00 0.00 0.00 0.00 0.00 0.01 0.01 0.02
0.07 0.11 0.14 0.28 0.39 0.51 0.61 0.66 0.76 0.82 0.84 0.83 0.82 0.82 0.68 0.51 0.47 0.43 0.35 0.40 0.39 0.37 0.43 0.40 0.42 0.37 0.27 0.15 0.22 0.21 0.08 0.02 0.01 0.01 0.00 0.00 0.00 0.00 0.00 0.00 0.00 0.00 0.00
0.05 0.09 0.14 0.25 0.42 0.56 0.69 0.76 0.78 0.89 0.92 0.88 0.92 0.90 0.90 0.75 0.65 0.57 0.48 0.53 0.49 0.58 0.73 0.66 0.61 0.55 0.40 0.25 0.34 0.44 0.23 0.10 0.03 0.01 0.01 0.00 0.00 0.00 0.00 0.00 0.00 0.00 0.00
0.03 0.07 0.13 0.23 0.39 0.56 0.70 0.71 0.65 0.63 0.70 0.73 0.71 0.76 0.83 0.90 0.88 0.81 0.76 0.72 0.64 0.65 0.82 0.87 0.83 0.74 0.62 0.44 0.38 0.40 0.36 0.28 0.12 0.02 0.01 0.00 0.00 0.00 0.00 0.00 0.00 0.00 0.00
0.03 0.06 0.11 0.23 0.32 0.40 0.47 0.48 0.46 0.42 0.52 0.63 0.65 0.66 0.68 0.79 0.89 0.91 0.90 0.89 0.78 0.68 0.75 0.89 0.94 0.92 0.91 0.74 0.55 0.40 0.30 0.27 0.20 0.09 0.02 0.00 0.00 0.00 0.00 0.00 0.00 0.00 0.00
0.06 0.09 0.14 0.23 0.29 0.32 0.38 0.41 0.38 0.30 0.34 0.46 0.48 0.49 0.56 0.69 0.74 0.74 0.80 0.89 0.84 0.74 0.77 0.94 1.04 1.11 1.01 0.88 0.71 0.63 0.56 0.46 0.27 0.19 0.14 0.05 0.01 0.00 0.00 0.00 0.00 0.00 0.00
0.12 0.14 0.19 0.29 0.39 0.40 0.34 0.29 0.22 0.19 0.24 0.29 0.37 0.47 0.60 0.71 0.68 0.62 0.68 0.75 0.82 0.79 0.78 0.83 0.95 1.03 1.07 1.07 0.92 0.73 0.67 0.61 0.52 0.40 0.27 0.18 0.09 0.02 0.00 0.00 0.00 0.00 0.00